Weather History for Defiance, OH

Change the Weather History Date:

Friday, January 4, 2013

  Actual Average Record
Temperature  
Mean Temperature 22 °F -  
Max Temperature 28 °F 34 °F 60 °F (1939)
Min Temperature 17 °F 18 °F -13 °F (1981)
Degree Days  
Heating Degree Days 42    
Moisture  
Dew Point 15 °F    
Average Humidity 73    
Maximum Humidity 81    
Minimum Humidity 63    
Precipitation  
Precipitation 0.00 in - - ()
Sea Level Pressure  
Sea Level Pressure 30.23 in    
Wind  
Wind Speed 10 mph (SW)    
Max Wind Speed 17 mph    
Max Gust Speed 25 mph    
Visibility 10 miles    
Events      
Averages and records for this station are not official NWS values.
T = Trace of Precipitation, MM = Missing Value Source: NWS Daily Summary

Daily Weather History Graph

Daily Weather History Graph

Search for Another Location

Airport:

Trip Planner

Search our weather history database for the weather conditions in past years. The results will help you decide how hot, cold, wet, or windy it might be!

Date:

Astronomy

Jan. 04, 2013 Rise Set
Actual Time 8:03 AM EST 5:22 PM EST
Civil Twilight 7:32 AM EST 5:53 PM EST
Nautical Twilight 6:58 AM EST 6:27 PM EST
Astronomical Twilight 6:24 AM EST 7:01 PM EST
Moon 12:00 AM EST (1/4) 11:41 AM EST (1/4)
Length of Visible Light 10h 20m
Length of Day
9h 18m
Waning Gibbous, 55% of the Moon is Illuminated
Jan 4
Waning Gibbous
Jan 4
Last Quarter
Jan 11
New
Jan 18
First Quarter
Jan 26
Full

Hourly Weather History & Observations

Time (EST) Temp. Windchill Dew Point Humidity Pressure Visibility Wind Dir Wind Speed Gust Speed Precip Events Conditions
12:53 AM 28.0 °F 20.8 °F 19.0 °F 69% 30.23 in 10.0 mi WSW 6.9 mph - N/A   Overcast
1:53 AM 28.0 °F 20.8 °F 19.9 °F 72% 30.23 in 10.0 mi WSW 6.9 mph - N/A   Overcast
3:53 AM 24.1 °F 13.7 °F 16.0 °F 71% 30.23 in 10.0 mi SW 10.4 mph - N/A   Mostly Cloudy
4:22 AM 21.2 °F 9.5 °F 15.8 °F 80% 30.20 in 10.0 mi SW 11.5 mph - N/A   Scattered Clouds
4:53 AM 21.0 °F 9.9 °F 14.0 °F 74% 30.23 in 10.0 mi WSW 10.4 mph - N/A   Clear
5:53 AM 19.9 °F 10.1 °F 14.0 °F 78% 30.23 in 10.0 mi WSW 8.1 mph - N/A   Clear
6:53 AM 19.0 °F 8.2 °F 12.9 °F 77% 30.25 in 10.0 mi SW 9.2 mph - N/A   Clear
7:53 AM 17.1 °F 5.0 °F 12.0 °F 81% 30.24 in 10.0 mi SW 10.4 mph - N/A   Clear
8:53 AM 17.1 °F 5.0 °F 10.9 °F 77% 30.24 in 10.0 mi SW 10.4 mph 18.4 mph N/A   Clear
9:53 AM 18.0 °F 6.1 °F 10.9 °F 74% 30.25 in 10.0 mi SW 10.4 mph 18.4 mph N/A   Clear
10:53 AM 19.9 °F 8.6 °F 10.9 °F 68% 30.26 in 10.0 mi WSW 10.4 mph 20.7 mph N/A   Clear
11:53 AM 21.0 °F 9.3 °F 10.9 °F 65% 30.24 in 10.0 mi WSW 11.5 mph 21.9 mph N/A   Clear
12:53 PM 23.0 °F 11.1 °F 12.9 °F 65% 30.22 in 10.0 mi WSW 12.7 mph 20.7 mph N/A   Clear
1:53 PM 26.1 °F 13.1 °F 15.1 °F 63% 30.20 in 10.0 mi WSW 17.3 mph 25.3 mph N/A   Clear
2:53 PM 26.1 °F 14.0 °F 16.0 °F 66% 30.19 in 10.0 mi SW 15.0 mph 21.9 mph N/A   Clear
3:53 PM 25.0 °F 11.7 °F 16.0 °F 69% 30.19 in 10.0 mi SW 17.3 mph 25.3 mph N/A   Clear
4:53 PM 25.0 °F 12.6 °F 16.0 °F 69% 30.20 in 10.0 mi SW 15.0 mph 21.9 mph N/A   Clear
5:53 PM 24.1 °F 11.5 °F 16.0 °F 71% 30.21 in 10.0 mi SW 15.0 mph 21.9 mph N/A   Clear
6:53 PM 25.0 °F 14.2 °F 17.1 °F 72% 30.23 in 10.0 mi SW 11.5 mph - N/A   Clear
7:53 PM 24.1 °F 15.2 °F 17.1 °F 75% 30.25 in 10.0 mi SW 8.1 mph - N/A   Clear
8:53 PM 23.0 °F 15.8 °F 17.1 °F 78% 30.26 in 10.0 mi SW 5.8 mph - N/A   Clear
9:53 PM 24.1 °F 17.0 °F 18.0 °F 77% 30.27 in 10.0 mi SW 5.8 mph - N/A   Clear
10:53 PM 24.1 °F 17.0 °F 18.0 °F 77% 30.27 in 10.0 mi WSW 5.8 mph - N/A   Clear
11:53 PM 21.0 °F 14.6 °F 16.0 °F 81% 30.29 in 9.0 mi SSW 4.6 mph - N/A   Clear